Location: Astronomy Club of Akron Observatory
(40.9700°N, 81.5606°W)
Time: 00:53:52
(UTC-04:00)

ISS - Pass Details

Date: 19 July 2018
Orbit: 402 x 408 km, 51.6° (Epoch: 18 July)

Event Time Altitude Azimuth Distance (km) Brightness Sun altitude
Rises 23:10:05 0° 246° (WSW) 2,311 0.2 -20.0°
Reaches altitude 10° 23:12:12 10° 252° (WSW) 1,455 -0.8 -20.3°
Maximum altitude 23:15:23 48° 329° (NNW) 539 -2.8 -20.6°
Drops below altitude 10° 23:18:34 10° 45° (NE) 1,465 -0.9 -20.9°
Sets 23:20:43 0° 51° (NE) 2,329 0.1 -21.2°
